Time,TemperatureF,DewpointF,PressureIn,WindDirection,WindDirectionDegrees,WindSpeedMPH,WindSpeedGustMPH,Humidity,HourlyPrecipIn,Conditions,Clouds,dailyrainin,SoftwareType,DateUTC
2013-06-14 00:01:00,55.5,54.0,29.57,ENE,75,9.0,10.0,94,0.09,,,0.16,weatherlink.com 1.10,2013-06-14 04:01:00,
2013-06-14 00:16:00,55.3,54.0,29.56,East,84,2.0,15.0,94,0.13,,,0.21,weatherlink.com 1.10,2013-06-14 04:16:00,
2013-06-14 00:31:00,55.1,54.0,29.57,North,7,2.0,11.0,94,0.16,,,0.26,weatherlink.com 1.10,2013-06-14 04:31:00,
2013-06-14 00:46:00,55.1,54.0,29.56,East,88,1.0,16.0,94,0.19,,,0.31,weatherlink.com 1.10,2013-06-14 04:46:00,
2013-06-14 01:01:00,55.2,54.0,29.57,ENE,77,4.0,13.0,94,0.18,,,0.35,weatherlink.com 1.10,2013-06-14 05:01:00,
2013-06-14 01:16:00,55.3,54.0,29.57,NE,54,4.0,12.0,94,0.18,,,0.39,weatherlink.com 1.10,2013-06-14 05:16:00,
2013-06-14 01:31:00,55.4,54.0,29.57,NE,41,5.0,11.0,94,0.16,,,0.42,weatherlink.com 1.10,2013-06-14 05:31:00,
2013-06-14 01:46:00,55.4,54.0,29.57,ENE,63,2.0,10.0,94,0.15,,,0.46,weatherlink.com 1.10,2013-06-14 05:46:00,
2013-06-14 02:01:00,55.3,54.0,29.58,East,89,2.0,9.0,94,0.15,,,0.50,weatherlink.com 1.10,2013-06-14 06:01:00,
2013-06-14 02:16:00,55.1,54.0,29.57,West,281,4.0,7.0,94,0.15,,,0.54,weatherlink.com 1.10,2013-06-14 06:16:00,
2013-06-14 02:31:00,54.9,54.0,29.56,East,93,1.0,8.0,95,0.15,,,0.58,weatherlink.com 1.10,2013-06-14 06:31:00,
2013-06-14 02:46:00,54.8,53.0,29.56,East,99,2.0,13.0,94,0.17,,,0.63,weatherlink.com 1.10,2013-06-14 06:46:00,
2013-06-14 03:01:00,54.7,53.0,29.55,SSE,155,5.0,12.0,94,0.17,,,0.67,weatherlink.com 1.10,2013-06-14 07:01:00,
2013-06-14 03:16:00,54.4,53.0,29.54,East,89,5.0,11.0,94,0.16,,,0.70,weatherlink.com 1.10,2013-06-14 07:16:00,
2013-06-14 03:39:00,54.3,53.0,29.54,North,3,5.0,17.0,95,0.15,,,0.76,weatherlink.com 1.10,2013-06-14 07:39:00,
2013-06-14 03:46:00,54.2,53.0,29.54,NNE,25,5.0,10.0,94,0.15,,,0.00,weatherlink.com 1.10,2013-06-14 07:46:00,
2013-06-14 04:01:00,54.2,53.0,29.54,ESE,121,3.0,18.0,94,0.15,,,0.04,weatherlink.com 1.10,2013-06-14 08:01:00,
2013-06-14 04:17:00,54.3,53.0,29.55,ENE,72,2.0,18.0,95,0.16,,,0.09,weatherlink.com 1.10,2013-06-14 08:17:00,
2013-06-14 04:32:00,54.3,53.0,29.57,SE,124,4.0,11.0,95,0.17,,,0.13,weatherlink.com 1.10,2013-06-14 08:32:00,
2013-06-14 04:47:00,54.3,53.0,29.57,East,94,2.0,12.0,95,0.17,,,0.17,weatherlink.com 1.10,2013-06-14 08:47:00,
2013-06-14 05:02:00,54.1,53.0,29.56,NNW,329,5.0,9.0,95,0.17,,,0.22,weatherlink.com 1.10,2013-06-14 09:02:00,
2013-06-14 05:17:00,54.1,53.0,29.56,NNE,29,11.0,15.0,95,0.17,,,0.26,weatherlink.com 1.10,2013-06-14 09:17:00,
2013-06-14 05:32:00,54.2,53.0,29.57,NE,42,9.0,14.0,94,0.17,,,0.30,weatherlink.com 1.10,2013-06-14 09:32:00,
2013-06-14 05:47:00,54.1,53.0,29.58,North,6,10.0,17.0,94,0.16,,,0.34,weatherlink.com 1.10,2013-06-14 09:47:00,
2013-06-14 06:02:00,54.0,52.0,29.57,East,80,1.0,12.0,94,0.16,,,0.38,weatherlink.com 1.10,2013-06-14 10:02:00,
2013-06-14 06:17:00,53.9,52.0,29.57,NE,46,8.0,15.0,94,0.15,,,0.41,weatherlink.com 1.10,2013-06-14 10:17:00,
2013-06-14 06:32:00,53.7,52.0,29.59,ENE,77,6.0,16.0,94,0.15,,,0.45,weatherlink.com 1.10,2013-06-14 10:32:00,
2013-06-14 06:47:00,53.5,52.0,29.61,NE,47,4.0,15.0,94,0.14,,,0.48,weatherlink.com 1.10,2013-06-14 10:47:00,
2013-06-14 07:02:00,53.5,52.0,29.62,North,5,12.0,18.0,94,0.14,,,0.52,weatherlink.com 1.10,2013-06-14 11:02:00,
2013-06-14 07:17:00,53.0,51.0,29.62,NNW,333,2.0,15.0,93,0.13,,,0.55,weatherlink.com 1.10,2013-06-14 11:17:00,
2013-06-14 07:32:00,53.1,52.0,29.62,East,90,5.0,16.0,94,0.13,,,0.58,weatherlink.com 1.10,2013-06-14 11:32:00,
2013-06-14 07:47:00,53.2,51.0,29.62,ESE,111,8.0,18.0,93,0.13,,,0.61,weatherlink.com 1.10,2013-06-14 11:47:00,
2013-06-14 08:02:00,53.4,52.0,29.62,NE,53,2.0,12.0,94,0.12,,,0.64,weatherlink.com 1.10,2013-06-14 12:02:00,
2013-06-14 08:17:00,53.6,52.0,29.64,NW,326,3.0,13.0,94,0.11,,,0.66,weatherlink.com 1.10,2013-06-14 12:17:00,
2013-06-14 08:32:00,53.6,52.0,29.64,North,359,8.0,16.0,93,0.11,,,0.69,weatherlink.com 1.10,2013-06-14 12:32:00,
2013-06-14 08:47:00,53.7,52.0,29.63,North,1,7.0,12.0,93,0.09,,,0.71,weatherlink.com 1.10,2013-06-14 12:47:00,
2013-06-14 09:02:00,53.9,52.0,29.63,SSE,161,2.0,13.0,93,0.08,,,0.72,weatherlink.com 1.10,2013-06-14 13:02:00,
2013-06-14 09:17:00,54.0,52.0,29.63,East,82,3.0,13.0,93,0.08,,,0.74,weatherlink.com 1.10,2013-06-14 13:17:00,
2013-06-14 09:32:00,53.9,52.0,29.63,East,99,6.0,18.0,92,0.08,,,0.76,weatherlink.com 1.10,2013-06-14 13:32:00,
2013-06-14 09:47:00,53.7,52.0,29.64,WNW,293,4.0,15.0,92,0.06,,,0.77,weatherlink.com 1.10,2013-06-14 13:47:00,
2013-06-14 10:02:00,54.1,52.0,29.64,NNE,32,7.0,24.0,92,0.06,,,0.78,weatherlink.com 1.10,2013-06-14 14:02:00,
2013-06-14 10:17:00,55.0,53.0,29.65,NNE,13,9.0,13.0,91,0.04,,,0.78,weatherlink.com 1.10,2013-06-14 14:17:00,
2013-06-14 10:32:00,56.0,52.0,29.66,ENE,70,10.0,14.0,86,0.03,,,0.79,weatherlink.com 1.10,2013-06-14 14:32:00,
2013-06-14 10:47:00,56.3,51.0,29.66,ENE,71,8.0,20.0,83,0.02,,,0.79,weatherlink.com 1.10,2013-06-14 14:47:00,
2013-06-14 11:02:00,57.3,52.0,29.67,NNE,22,5.0,18.0,82,0.01,,,0.79,weatherlink.com 1.10,2013-06-14 15:02:00,
2013-06-14 11:18:00,57.5,52.0,29.67,North,10,5.0,18.0,83,0.01,,,0.79,weatherlink.com 1.10,2013-06-14 15:18:00,
2013-06-14 11:32:00,58.8,52.0,29.68,East,85,11.0,24.0,79,0.01,,,0.80,weatherlink.com 1.10,2013-06-14 15:32:00,
2013-06-14 11:47:00,59.9,53.0,29.67,North,1,11.0,17.0,77,0.01,,,0.80,weatherlink.com 1.10,2013-06-14 15:47:00,
2013-06-14 12:02:00,61.1,52.0,29.67,NNE,30,5.0,21.0,73,0.01,,,0.80,weatherlink.com 1.10,2013-06-14 16:02:00,
2013-06-14 12:17:00,61.2,52.0,29.68,NNE,13,12.0,16.0,72,0.01,,,0.80,weatherlink.com 1.10,2013-06-14 16:17:00,
2013-06-14 12:32:00,60.2,53.0,29.69,ENE,60,12.0,18.0,76,0.00,,,0.80,weatherlink.com 1.10,2013-06-14 16:32:00,
2013-06-14 12:47:00,59.6,52.0,29.70,NE,55,4.0,20.0,77,0.00,,,0.80,weatherlink.com 1.10,2013-06-14 16:47:00,
2013-06-14 13:02:00,60.6,53.0,29.70,NE,51,6.0,17.0,77,0.00,,,0.80,weatherlink.com 1.10,2013-06-14 17:02:00,
2013-06-14 13:17:00,60.4,53.0,29.70,NW,318,7.0,16.0,77,0.00,,,0.80,weatherlink.com 1.10,2013-06-14 17:17:00,
2013-06-14 13:32:00,60.5,53.0,29.70,NNE,19,5.0,16.0,75,0.00,,,0.80,weatherlink.com 1.10,2013-06-14 17:32:00,
2013-06-14 13:47:00,61.4,52.0,29.70,North,6,4.0,14.0,72,0.00,,,0.80,weatherlink.com 1.10,2013-06-14 17:47:00,
2013-06-14 14:02:00,61.4,53.0,29.71,North,357,6.0,15.0,73,0.00,,,0.80,weatherlink.com 1.10,2013-06-14 18:02:00,
2013-06-14 14:17:00,60.8,52.0,29.71,NNE,15,3.0,14.0,72,0.00,,,0.80,weatherlink.com 1.10,2013-06-14 18:17:00,
2013-06-14 14:32:00,61.0,52.0,29.71,NNE,20,11.0,16.0,71,0.00,,,0.80,weatherlink.com 1.10,2013-06-14 18:32:00,
2013-06-14 15:03:00,60.9,50.0,29.73,NNE,12,6.0,16.0,68,0.00,,,0.80,weatherlink.com 1.10,2013-06-14 19:03:00,
2013-06-14 15:18:00,60.9,50.0,29.73,West,268,2.0,11.0,68,0.00,,,0.80,weatherlink.com 1.10,2013-06-14 19:18:00,
2013-06-14 15:33:00,61.1,50.0,29.73,NNE,23,3.0,12.0,66,0.00,,,0.80,weatherlink.com 1.10,2013-06-14 19:33:00,
2013-06-14 15:48:00,61.0,51.0,29.74,North,359,2.0,14.0,69,0.00,,,0.80,weatherlink.com 1.10,2013-06-14 19:48:00,
2013-06-14 16:03:00,60.8,50.0,29.74,NNE,18,5.0,12.0,68,0.00,,,0.80,weatherlink.com 1.10,2013-06-14 20:03:00,
2013-06-14 16:18:00,60.5,51.0,29.74,NNE,19,2.0,8.0,70,0.00,,,0.80,weatherlink.com 1.10,2013-06-14 20:18:00,
2013-06-14 16:33:00,60.5,51.0,29.74,NNE,18,1.0,5.0,70,0.00,,,0.80,weatherlink.com 1.10,2013-06-14 20:33:00,
2013-06-14 16:48:00,60.9,51.0,29.74,ENE,63,0.0,4.0,71,0.00,,,0.80,weatherlink.com 1.10,2013-06-14 20:48:00,
2013-06-14 17:03:00,61.8,52.0,29.74,NNE,18,0.0,5.0,70,0.00,,,0.80,weatherlink.com 1.10,2013-06-14 21:03:00,
2013-06-14 17:18:00,62.0,53.0,29.74,NE,53,1.0,5.0,73,0.00,,,0.80,weatherlink.com 1.10,2013-06-14 21:18:00,
2013-06-14 17:33:00,62.3,54.0,29.75,ENE,59,0.0,2.0,73,0.00,,,0.80,weatherlink.com 1.10,2013-06-14 21:33:00,
2013-06-14 17:48:00,63.0,53.0,29.74,North,7,2.0,3.0,71,0.00,,,0.80,weatherlink.com 1.10,2013-06-14 21:48:00,
2013-06-14 18:03:00,63.0,53.0,29.74,NNW,341,0.0,3.0,69,0.00,,,0.80,weatherlink.com 1.10,2013-06-14 22:03:00,
2013-06-14 18:18:00,62.8,54.0,29.74,NNW,341,0.0,1.0,74,0.00,,,0.80,weatherlink.com 1.10,2013-06-14 22:18:00,
2013-06-14 18:33:00,63.2,56.0,29.75,NNW,341,0.0,1.0,76,0.00,,,0.80,weatherlink.com 1.10,2013-06-14 22:33:00,
2013-06-14 18:48:00,64.8,54.0,29.75,West,278,1.0,2.0,67,0.00,,,0.80,weatherlink.com 1.10,2013-06-14 22:48:00,
2013-06-14 19:03:00,65.2,54.0,29.75,West,274,0.0,3.0,68,0.00,,,0.80,weatherlink.com 1.10,2013-06-14 23:03:00,
2013-06-14 19:18:00,64.6,53.0,29.76,West,262,3.0,4.0,67,0.00,,,0.80,weatherlink.com 1.10,2013-06-14 23:18:00,
2013-06-14 19:33:00,63.6,54.0,29.76,WSW,243,0.0,4.0,70,0.00,,,0.80,weatherlink.com 1.10,2013-06-14 23:33:00,
2013-06-14 19:48:00,61.7,54.0,29.76,WSW,243,0.0,1.0,77,0.00,,,0.80,weatherlink.com 1.10,2013-06-14 23:48:00,
2013-06-14 20:03:00,59.5,54.0,29.76,WSW,243,0.0,0.0,82,0.00,,,0.80,weatherlink.com 1.10,2013-06-15 00:03:00,
2013-06-14 20:18:00,57.1,53.0,29.77,WSW,243,0.0,1.0,85,0.00,,,0.80,weatherlink.com 1.10,2013-06-15 00:18:00,
2013-06-14 20:33:00,55.6,52.0,29.76,WSW,243,0.0,1.0,87,0.00,,,0.80,weatherlink.com 1.10,2013-06-15 00:33:00,
2013-06-14 20:48:00,54.9,51.0,29.77,West,278,3.0,5.0,87,0.00,,,0.80,weatherlink.com 1.10,2013-06-15 00:48:00,
2013-06-14 21:03:00,57.1,54.0,29.77,West,274,3.0,6.0,88,0.00,,,0.80,weatherlink.com 1.10,2013-06-15 01:03:00,
2013-06-14 21:18:00,58.3,55.0,29.77,West,273,2.0,6.0,87,0.00,,,0.80,weatherlink.com 1.10,2013-06-15 01:18:00,
2013-06-14 21:33:00,58.6,55.0,29.77,West,275,3.0,7.0,88,0.00,,,0.80,weatherlink.com 1.10,2013-06-15 01:33:00,
2013-06-14 21:48:00,59.0,56.0,29.77,WNW,302,2.0,7.0,88,0.00,,,0.80,weatherlink.com 1.10,2013-06-15 01:48:00,
2013-06-14 22:03:00,59.0,56.0,29.78,WNW,290,3.0,5.0,88,0.00,,,0.80,weatherlink.com 1.10,2013-06-15 02:03:00,
2013-06-14 22:18:00,58.8,56.0,29.77,WNW,285,1.0,5.0,89,0.00,,,0.80,weatherlink.com 1.10,2013-06-15 02:18:00,
2013-06-14 22:33:00,58.9,56.0,29.77,WNW,302,1.0,5.0,89,0.00,,,0.80,weatherlink.com 1.10,2013-06-15 02:33:00,
2013-06-14 22:48:00,58.9,56.0,29.77,West,277,3.0,6.0,90,0.00,,,0.80,weatherlink.com 1.10,2013-06-15 02:48:00,
2013-06-14 23:03:00,58.9,56.0,29.77,WNW,303,3.0,6.0,90,0.00,,,0.80,weatherlink.com 1.10,2013-06-15 03:03:00,
2013-06-14 23:18:00,59.0,56.0,29.77,NW,311,1.0,4.0,90,0.00,,,0.80,weatherlink.com 1.10,2013-06-15 03:18:00,
2013-06-14 23:33:00,58.7,56.0,29.77,NW,311,3.0,4.0,91,0.00,,,0.80,weatherlink.com 1.10,2013-06-15 03:33:00,
2013-06-14 23:48:00,59.1,57.0,29.77,WNW,291,3.0,5.0,91,0.00,,,0.80,weatherlink.com 1.10,2013-06-15 03:48:00,